AAL502 MMMX-KPHX

Flight info

Callsign AAL502
Flight time N/A
Altitude 36000
Route ATURO3B ATURO UT134 ZCL UT10 SETRO UT12 VYLLA DCT TUS DCT HOTTT PINNG1
Aircraft B738/M-SDE2E3FGHIRWXY/LB1

Departure

Time 2026-05-04 23:31
Airport Mexico City Benito Juárez International Airport (MMMX)

Arrival

Time N/A
Airport Phoenix Sky Harbor International Airport (KPHX)
Time Latitude Longitude Altitude Speed Heading
2026-05-04 22:57 19.43812 -99.07752 7327 ft 0 kts 243°
2026-05-04 23:01 19.43812 -99.07753 7327 ft 0 kts 243°
2026-05-04 23:01 19.43811 -99.07753 7327 ft 0 kts 243°
2026-05-04 23:05 19.43811 -99.07754 7327 ft 0 kts 243°
2026-05-04 23:09 19.43811 -99.07755 7327 ft 0 kts 243°
2026-05-04 23:10 19.43810 -99.07755 7327 ft 0 kts 243°
2026-05-04 23:13 19.43810 -99.07756 7327 ft 0 kts 243°
2026-05-04 23:13 19.43814 -99.07748 7327 ft 2 kts 243°
2026-05-04 23:13 19.43822 -99.07732 7327 ft 3 kts 243°
2026-05-04 23:14 19.43829 -99.07717 7327 ft 0 kts 243°
2026-05-04 23:14 19.43828 -99.07718 7327 ft 1 kts 230°
2026-05-04 23:14 19.43823 -99.07719 7327 ft 1 kts 192°
2026-05-04 23:14 19.43818 -99.07715 7327 ft 2 kts 132°
2026-05-04 23:15 19.43803 -99.07690 7327 ft 3 kts 119°
2026-05-04 23:15 19.43782 -99.07666 7327 ft 6 kts 143°
2026-05-04 23:15 19.43751 -99.07645 7327 ft 3 kts 147°
2026-05-04 23:15 19.43748 -99.07642 7327 ft 0 kts 147°
2026-05-04 23:16 19.43746 -99.07641 7327 ft 0 kts 147°
2026-05-04 23:16 19.43741 -99.07638 7327 ft 6 kts 147°
2026-05-04 23:17 19.43696 -99.07633 7327 ft 7 kts 215°
2026-05-04 23:17 19.43658 -99.07686 7327 ft 12 kts 238°
2026-05-04 23:17 19.43613 -99.07769 7327 ft 13 kts 239°
2026-05-04 23:17 19.43570 -99.07847 7327 ft 14 kts 239°
2026-05-04 23:18 19.43521 -99.07934 7327 ft 13 kts 239°
2026-05-04 23:18 19.43475 -99.08018 7327 ft 13 kts 239°
2026-05-04 23:18 19.43427 -99.08103 7327 ft 13 kts 239°
2026-05-04 23:18 19.43382 -99.08186 7327 ft 14 kts 239°
2026-05-04 23:19 19.43325 -99.08287 7327 ft 16 kts 239°
2026-05-04 23:19 19.43266 -99.08392 7327 ft 17 kts 239°
2026-05-04 23:19 19.43208 -99.08497 7327 ft 17 kts 240°
2026-05-04 23:19 19.43148 -99.08605 7327 ft 17 kts 239°
2026-05-04 23:20 19.43088 -99.08712 7327 ft 17 kts 239°
2026-05-04 23:20 19.43030 -99.08814 7327 ft 14 kts 239°
2026-05-04 23:20 19.42991 -99.08888 7327 ft 9 kts 240°
2026-05-04 23:20 19.42962 -99.08940 7327 ft 10 kts 240°
2026-05-04 23:21 19.42935 -99.08988 7327 ft 6 kts 236°
2026-05-04 23:21 19.42888 -99.09033 7327 ft 8 kts 211°
2026-05-04 23:21 19.42858 -99.09053 7327 ft 2 kts 211°
2026-05-04 23:21 19.42857 -99.09053 7327 ft 0 kts 211°
2026-05-04 23:22 19.42847 -99.09060 7327 ft 4 kts 211°
2026-05-04 23:22 19.42843 -99.09062 7327 ft 0 kts 211°
2026-05-04 23:23 19.42843 -99.09063 7327 ft 0 kts 211°
2026-05-04 23:24 19.42842 -99.09063 7327 ft 0 kts 211°
2026-05-04 23:28 19.42812 -99.09080 7327 ft 10 kts 204°
2026-05-04 23:28 19.42767 -99.09070 7327 ft 6 kts 116°
2026-05-04 23:28 19.42777 -99.09018 7327 ft 6 kts 62°
2026-05-04 23:28 19.42790 -99.08993 7327 ft 1 kts 60°
2026-05-04 23:29 19.42791 -99.08991 7327 ft 0 kts 59°
2026-05-04 23:29 19.42793 -99.08987 7327 ft 1 kts 59°
2026-05-04 23:29 19.42794 -99.08987 7327 ft 0 kts 59°
2026-05-04 23:29 19.42838 -99.08907 7327 ft 36 kts 59°
2026-05-04 23:30 19.43059 -99.08518 7327 ft 87 kts 59°
2026-05-04 23:30 19.43454 -99.07820 7328 ft 133 kts 60°
2026-05-04 23:30 19.44001 -99.06840 7328 ft 174 kts 59°
2026-05-04 23:30 19.44661 -99.05669 7562 ft 193 kts 59°
2026-05-04 23:31 19.45373 -99.04403 8020 ft 204 kts 61°
2026-05-04 23:31 19.46100 -99.03105 8579 ft 210 kts 64°
2026-05-04 23:31 19.46851 -99.01764 9183 ft 213 kts 63°
2026-05-04 23:31 19.47638 -99.00355 9513 ft 226 kts 59°
2026-05-04 23:32 19.48459 -98.98899 9789 ft 241 kts 59°
2026-05-04 23:32 19.49348 -98.97319 9974 ft 259 kts 59°
2026-05-04 23:32 19.50298 -98.95625 10132 ft 271 kts 59°
2026-05-04 23:32 19.51259 -98.93912 10802 ft 270 kts 59°
2026-05-04 23:33 19.52221 -98.92193 11431 ft 272 kts 59°
2026-05-04 23:33 19.53237 -98.90496 12001 ft 275 kts 54°
2026-05-04 23:33 19.54470 -98.88933 12646 ft 276 kts 47°
2026-05-04 23:33 19.55772 -98.87434 13283 ft 277 kts 47°
2026-05-04 23:34 19.57087 -98.85927 13901 ft 279 kts 46°
2026-05-04 23:34 19.58406 -98.84409 14533 ft 280 kts 46°
2026-05-04 23:34 19.59729 -98.82883 15185 ft 281 kts 47°
2026-05-04 23:34 19.61052 -98.81356 15832 ft 283 kts 46°
2026-05-04 23:35 19.62388 -98.79814 16466 ft 284 kts 46°
2026-05-04 23:35 19.63726 -98.78269 17094 ft 285 kts 46°
2026-05-04 23:35 19.65074 -98.76713 17732 ft 287 kts 46°
2026-05-04 23:35 19.66427 -98.75149 18351 ft 289 kts 46°
2026-05-04 23:36 19.67792 -98.73571 18936 ft 291 kts 46°
2026-05-04 23:36 19.69168 -98.71981 19501 ft 294 kts 46°
2026-05-04 23:36 19.70741 -98.70583 19964 ft 298 kts 28°
2026-05-04 23:36 19.72698 -98.69900 20548 ft 296 kts 10°
2026-05-04 23:37 19.74756 -98.69691 21111 ft 298 kts
2026-05-04 23:37 19.76848 -98.69581 21566 ft 303 kts
2026-05-04 23:37 19.78937 -98.69452 22086 ft 305 kts
2026-05-04 23:37 19.80996 -98.69317 22588 ft 308 kts
2026-05-04 23:38 19.83141 -98.69175 23050 ft 310 kts
2026-05-04 23:38 19.84698 -98.69071 23404 ft 311 kts
2026-05-04 23:38 19.86867 -98.68926 23845 ft 314 kts
2026-05-04 23:38 19.89064 -98.68778 24221 ft 318 kts
2026-05-04 23:39 19.91293 -98.68628 24563 ft 323 kts
2026-05-04 23:39 19.93555 -98.68476 24818 ft 327 kts
2026-05-04 23:39 19.95852 -98.68469 25023 ft 335 kts 352°
2026-05-04 23:39 19.98082 -98.69231 25265 ft 341 kts 334°
2026-05-04 23:40 20.00092 -98.70614 25581 ft 347 kts 325°
2026-05-04 23:40 20.02047 -98.72163 25867 ft 353 kts 324°
2026-05-04 23:40 20.04042 -98.73716 26129 ft 358 kts 325°
2026-05-04 23:40 20.06073 -98.75289 26387 ft 364 kts 325°
2026-05-04 23:41 20.08143 -98.76889 26642 ft 369 kts 325°
2026-05-04 23:41 20.10213 -98.78489 26894 ft 374 kts 325°
2026-05-04 23:41 20.12332 -98.80128 27144 ft 379 kts 324°
2026-05-04 23:41 20.14479 -98.81788 27398 ft 384 kts 324°
2026-05-04 23:42 20.16642 -98.83479 27648 ft 388 kts 324°
2026-05-04 23:42 20.18823 -98.85188 27898 ft 392 kts 324°
2026-05-04 23:42 20.21028 -98.86916 28150 ft 395 kts 324°
2026-05-04 23:42 20.23221 -98.88695 28376 ft 399 kts 320°
2026-05-04 23:43 20.25061 -98.90927 28601 ft 403 kts 306°
2026-05-04 23:43 20.26565 -98.93463 28903 ft 405 kts 306°
2026-05-04 23:43 20.28374 -98.95759 29132 ft 406 kts 315°
2026-05-04 23:43 20.30370 -98.97888 29428 ft 407 kts 316°
2026-05-04 23:44 20.32360 -99.00040 29661 ft 409 kts 315°
2026-05-04 23:44 20.34352 -99.02216 29909 ft 411 kts 315°
2026-05-04 23:44 20.36355 -99.04406 30151 ft 412 kts 315°
2026-05-04 23:44 20.38358 -99.06598 30395 ft 414 kts 315°
2026-05-04 23:45 20.40373 -99.08804 30638 ft 415 kts 315°
2026-05-04 23:45 20.42388 -99.11011 30880 ft 416 kts 315°
2026-05-04 23:45 20.44405 -99.13222 31115 ft 416 kts 315°
2026-05-04 23:45 20.46424 -99.15450 31353 ft 417 kts 314°
2026-05-04 23:46 20.48418 -99.17710 31597 ft 417 kts 314°
2026-05-04 23:46 20.50405 -99.19904 31826 ft 418 kts 315°
2026-05-04 23:46 20.52433 -99.22128 32062 ft 418 kts 315°
2026-05-04 23:46 20.54460 -99.24351 32302 ft 418 kts 315°
2026-05-04 23:47 20.56488 -99.26576 32534 ft 418 kts 315°
2026-05-04 23:47 20.58519 -99.28805 32772 ft 418 kts 315°
2026-05-04 23:47 20.60543 -99.31028 33007 ft 418 kts 315°
2026-05-04 23:47 20.62568 -99.33252 33242 ft 418 kts 314°
2026-05-04 23:48 20.64594 -99.35478 33476 ft 417 kts 314°
2026-05-04 23:48 20.65936 -99.36953 33629 ft 417 kts 314°
2026-05-04 23:48 20.68293 -99.39545 33907 ft 417 kts 314°
2026-05-04 23:48 20.70315 -99.41770 34136 ft 416 kts 314°
2026-05-04 23:49 20.72329 -99.43987 34368 ft 416 kts 314°
2026-05-04 23:49 20.74342 -99.46204 34598 ft 415 kts 314°
2026-05-04 23:49 20.75673 -99.47670 34753 ft 415 kts 314°
2026-05-04 23:49 20.77682 -99.49883 34985 ft 414 kts 314°
2026-05-04 23:50 20.79683 -99.52089 35213 ft 413 kts 314°
2026-05-04 23:50 20.81680 -99.54291 35444 ft 412 kts 313°
2026-05-04 23:50 20.83677 -99.56494 35674 ft 411 kts 313°
2026-05-04 23:50 20.85656 -99.58678 35899 ft 410 kts 313°
2026-05-04 23:51 20.87651 -99.60881 36126 ft 409 kts 313°
2026-05-04 23:51 20.89633 -99.63069 36222 ft 412 kts 313°
2026-05-04 23:51 20.93654 -99.67513 36222 ft 420 kts 313°
2026-05-04 23:52 20.97750 -99.72045 36223 ft 427 kts 313°
2026-05-04 23:52 21.01916 -99.76656 36221 ft 434 kts 313°
2026-05-04 23:53 21.05882 -99.81518 36224 ft 433 kts 302°
2026-05-04 23:53 21.09113 -99.86934 36227 ft 436 kts 304°
2026-05-04 23:54 21.12620 -99.92295 36217 ft 442 kts 304°
2026-05-04 23:54 21.16139 -99.97708 36216 ft 442 kts 304°
2026-05-04 23:55 21.19639 -100.03100 36217 ft 441 kts 304°
2026-05-04 23:56 21.24886 -100.11192 36213 ft 441 kts 304°
2026-05-04 23:56 21.28382 -100.16591 36211 ft 441 kts 304°
2026-05-04 23:57 21.31874 -100.21989 36209 ft 441 kts 304°
2026-05-04 23:57 21.35365 -100.27390 36206 ft 441 kts 304°
2026-05-04 23:58 21.38854 -100.32793 36203 ft 440 kts 304°
2026-05-04 23:58 21.42321 -100.38167 36198 ft 440 kts 304°
2026-05-04 23:59 21.45807 -100.43577 36190 ft 440 kts 304°
2026-05-04 23:59 21.49293 -100.48992 36187 ft 440 kts 304°
2026-05-05 00:00 21.52775 -100.54405 36183 ft 440 kts 304°
2026-05-05 00:00 21.56254 -100.59820 36176 ft 441 kts 304°
2026-05-05 00:01 21.59735 -100.65243 36173 ft 441 kts 304°
2026-05-05 00:01 21.63212 -100.70663 36171 ft 440 kts 303°
2026-05-05 00:02 21.66690 -100.76093 36168 ft 440 kts 303°
2026-05-05 00:02 21.70165 -100.81522 36166 ft 441 kts 303°
2026-05-05 00:03 21.73617 -100.86920 36164 ft 441 kts 303°
2026-05-05 00:03 21.77093 -100.92363 36165 ft 442 kts 303°
2026-05-05 00:04 21.80575 -100.97818 36163 ft 442 kts 303°
2026-05-05 00:04 21.84051 -101.03272 36166 ft 442 kts 303°
2026-05-05 00:05 21.87524 -101.08725 36165 ft 442 kts 303°
2026-05-05 00:05 21.90997 -101.14184 36166 ft 442 kts 303°
2026-05-05 00:06 21.94480 -101.19663 36164 ft 443 kts 303°
2026-05-05 00:06 21.97957 -101.25141 36162 ft 442 kts 303°
2026-05-05 00:07 22.01435 -101.30611 36168 ft 442 kts 303°
2026-05-05 00:07 22.04876 -101.36011 36169 ft 440 kts 303°
2026-05-05 00:08 22.08342 -101.41455 36170 ft 441 kts 303°
2026-05-05 00:08 22.11814 -101.46915 36173 ft 440 kts 303°
2026-05-05 00:09 22.15282 -101.52372 36166 ft 441 kts 303°
2026-05-05 00:09 22.18753 -101.57841 36166 ft 442 kts 303°
2026-05-05 00:10 22.22223 -101.63314 36169 ft 441 kts 303°
2026-05-05 00:10 22.25694 -101.68794 36171 ft 441 kts 303°
2026-05-05 00:11 22.28918 -101.73887 36176 ft 444 kts 304°
2026-05-05 00:11 22.32418 -101.79424 36179 ft 447 kts 304°
2026-05-05 00:12 22.35897 -101.84933 36179 ft 446 kts 304°
2026-05-05 00:12 22.39392 -101.90474 36190 ft 446 kts 304°
2026-05-05 00:13 22.42890 -101.96023 36192 ft 446 kts 304°
2026-05-05 00:13 22.46378 -102.01565 36195 ft 446 kts 303°
2026-05-05 00:14 22.49869 -102.07115 36196 ft 446 kts 303°
2026-05-05 00:14 22.53350 -102.12656 36200 ft 445 kts 303°
2026-05-05 00:15 22.56830 -102.18201 36204 ft 446 kts 303°
2026-05-05 00:15 22.60305 -102.23745 36207 ft 445 kts 303°
2026-05-05 00:16 22.63774 -102.29284 36213 ft 444 kts 303°
2026-05-05 00:16 22.67236 -102.34818 36219 ft 444 kts 303°
2026-05-05 00:17 22.70693 -102.40350 36221 ft 443 kts 303°
2026-05-05 00:17 22.74145 -102.45879 36222 ft 443 kts 303°
2026-05-05 00:18 22.77592 -102.51407 36226 ft 442 kts 303°
2026-05-05 00:18 22.81036 -102.56934 36225 ft 442 kts 303°
2026-05-05 00:19 22.84447 -102.62416 36228 ft 441 kts 303°
2026-05-05 00:19 22.87875 -102.67931 36228 ft 441 kts 302°
2026-05-05 00:20 22.91755 -102.73005 36250 ft 442 kts 317°
2026-05-05 00:20 22.96211 -102.77623 36223 ft 443 kts 312°
2026-05-05 00:21 23.00489 -102.82427 36225 ft 442 kts 312°
2026-05-05 00:21 23.04768 -102.87210 36223 ft 441 kts 312°
2026-05-05 00:22 23.09050 -102.92000 36222 ft 441 kts 312°
2026-05-05 00:22 23.13322 -102.96782 36222 ft 441 kts 312°
2026-05-05 00:23 23.17564 -103.01537 36216 ft 440 kts 312°
2026-05-05 00:23 23.21827 -103.06318 36214 ft 440 kts 311°
2026-05-05 00:24 23.26056 -103.11068 36204 ft 432 kts 311°
2026-05-05 00:24 23.30268 -103.15801 36214 ft 438 kts 311°
2026-05-05 00:25 23.34520 -103.20585 36204 ft 440 kts 311°
2026-05-05 00:25 23.38769 -103.25371 36199 ft 439 kts 311°
2026-05-05 00:26 23.43013 -103.30154 36194 ft 439 kts 311°
2026-05-05 00:26 23.47260 -103.34946 36188 ft 439 kts 311°
2026-05-05 00:27 23.51496 -103.39730 36185 ft 438 kts 311°
2026-05-05 00:27 23.55729 -103.44517 36178 ft 438 kts 311°
2026-05-05 00:28 23.59961 -103.49306 36153 ft 438 kts 311°
2026-05-05 00:28 23.64161 -103.54064 36151 ft 438 kts 311°
2026-05-05 00:29 23.68376 -103.58844 36148 ft 437 kts 310°
2026-05-05 00:29 23.72621 -103.63663 36143 ft 437 kts 310°
2026-05-05 00:30 23.76809 -103.68422 36142 ft 437 kts 310°
2026-05-05 00:30 23.81020 -103.73210 36138 ft 436 kts 310°
2026-05-05 00:31 23.85222 -103.77996 36137 ft 437 kts 310°
2026-05-05 00:31 23.89434 -103.82797 36127 ft 437 kts 310°
2026-05-05 00:32 23.93632 -103.87588 36128 ft 436 kts 310°
2026-05-05 00:32 23.97827 -103.92380 36128 ft 436 kts 310°
2026-05-05 00:33 24.01997 -103.97149 36130 ft 436 kts 310°
2026-05-05 00:33 24.06195 -104.01954 36131 ft 436 kts 310°
2026-05-05 00:34 24.10392 -104.06763 36132 ft 436 kts 310°
2026-05-05 00:34 24.14583 -104.11570 36138 ft 436 kts 310°
2026-05-05 00:35 24.18066 -104.15568 36138 ft 436 kts 310°
2026-05-05 00:35 24.22256 -104.20384 36139 ft 436 kts 310°
2026-05-05 00:36 24.26436 -104.25191 36140 ft 435 kts 310°
2026-05-05 00:36 24.30609 -104.29997 36141 ft 435 kts 310°
2026-05-05 00:37 24.34756 -104.34778 36143 ft 435 kts 310°
2026-05-05 00:37 24.38924 -104.39586 36141 ft 434 kts 310°
2026-05-05 00:38 24.43088 -104.44395 36135 ft 434 kts 310°
2026-05-05 00:38 24.47247 -104.49205 36137 ft 434 kts 310°
2026-05-05 00:39 24.51398 -104.54009 36126 ft 434 kts 310°
2026-05-05 00:39 24.55545 -104.58814 36121 ft 433 kts 310°
2026-05-05 00:40 24.59688 -104.63619 36114 ft 432 kts 310°
2026-05-05 00:40 24.63800 -104.68393 36109 ft 433 kts 310°
2026-05-05 00:41 24.67936 -104.73200 36103 ft 433 kts 309°
2026-05-05 00:41 24.72068 -104.78006 36096 ft 432 kts 309°
2026-05-05 00:42 24.76201 -104.82820 36090 ft 432 kts 309°
2026-05-05 00:42 24.80330 -104.87634 36082 ft 432 kts 309°
2026-05-05 00:43 24.84447 -104.92439 36076 ft 431 kts 309°
2026-05-05 00:43 24.85142 -104.93250 36078 ft 431 kts 309°
2026-05-05 00:44 24.85183 -104.93297 36079 ft 431 kts 309°
2026-05-05 00:44 24.87068 -104.95500 36100 ft 431 kts 309°
2026-05-05 00:45 24.91181 -105.00309 36089 ft 431 kts 309°
2026-05-05 00:45 24.95295 -105.05122 36088 ft 431 kts 309°
2026-05-05 00:46 24.99409 -105.09942 36083 ft 431 kts 309°
2026-05-05 00:46 25.03483 -105.14719 36081 ft 430 kts 309°
2026-05-05 00:47 25.07583 -105.19533 36079 ft 430 kts 309°
2026-05-05 00:47 25.11681 -105.24348 36076 ft 430 kts 309°
2026-05-05 00:48 25.15768 -105.29156 36070 ft 429 kts 309°
2026-05-05 00:48 25.19854 -105.33967 36069 ft 429 kts 309°
2026-05-05 00:49 25.23931 -105.38773 36066 ft 428 kts 309°
2026-05-05 00:49 25.28006 -105.43582 36061 ft 428 kts 308°
2026-05-05 00:50 25.32075 -105.48389 36062 ft 428 kts 308°
2026-05-05 00:50 25.36133 -105.53188 36060 ft 427 kts 308°
2026-05-05 00:51 25.40182 -105.57981 36059 ft 426 kts 308°
2026-05-05 00:51 25.44205 -105.62749 36057 ft 425 kts 308°
2026-05-05 00:52 25.48233 -105.67528 36055 ft 424 kts 308°
2026-05-05 00:52 25.52257 -105.72306 36055 ft 424 kts 308°
2026-05-05 00:53 25.56276 -105.77084 36068 ft 423 kts 308°
2026-05-05 00:53 25.60290 -105.81861 36065 ft 423 kts 308°
2026-05-05 00:54 25.64294 -105.86631 36064 ft 422 kts 307°
2026-05-05 00:54 25.68291 -105.91392 36062 ft 422 kts 307°
2026-05-05 00:55 25.72287 -105.96154 36063 ft 421 kts 307°
2026-05-05 00:55 25.76281 -106.00920 36066 ft 422 kts 307°
2026-05-05 00:56 25.80276 -106.05691 36070 ft 422 kts 307°
2026-05-05 00:56 25.84264 -106.10460 36072 ft 421 kts 307°
2026-05-05 00:57 25.88225 -106.15201 36073 ft 421 kts 307°
2026-05-05 00:57 25.92209 -106.19975 36075 ft 421 kts 307°
2026-05-05 00:58 25.96191 -106.24750 36075 ft 421 kts 307°
2026-05-05 00:58 26.00178 -106.29539 36078 ft 422 kts 307°
2026-05-05 00:59 26.04160 -106.34326 36081 ft 421 kts 307°
2026-05-05 00:59 26.08142 -106.39119 36086 ft 421 kts 307°
2026-05-05 01:00 26.12116 -106.43906 36088 ft 421 kts 307°
2026-05-05 01:00 26.16081 -106.48687 36094 ft 420 kts 307°
2026-05-05 01:01 26.20054 -106.53484 36098 ft 421 kts 307°
2026-05-05 01:01 26.24021 -106.58280 36102 ft 421 kts 307°
2026-05-05 01:02 26.27967 -106.63053 36109 ft 421 kts 307°
2026-05-05 01:02 26.31942 -106.67869 36115 ft 421 kts 307°
2026-05-05 01:03 26.35905 -106.72673 36121 ft 421 kts 307°
2026-05-05 01:03 26.39860 -106.77474 36129 ft 420 kts 307°
2026-05-05 01:04 26.43813 -106.82278 36137 ft 420 kts 307°
2026-05-05 01:04 26.49734 -106.89490 36149 ft 420 kts 307°
2026-05-05 01:05 26.53678 -106.94301 36158 ft 420 kts 306°
2026-05-05 01:05 26.57607 -106.99100 36166 ft 421 kts 306°
2026-05-05 01:06 26.61554 -107.03927 36163 ft 420 kts 306°
2026-05-05 01:06 26.65504 -107.08761 36172 ft 421 kts 306°
2026-05-05 01:07 26.69449 -107.13595 36183 ft 421 kts 306°
2026-05-05 01:07 26.73396 -107.18438 36194 ft 421 kts 306°
2026-05-05 01:08 26.77338 -107.23280 36205 ft 421 kts 306°
2026-05-05 01:08 26.81278 -107.28124 36216 ft 421 kts 306°
2026-05-05 01:09 26.85220 -107.32976 36227 ft 422 kts 306°
2026-05-05 01:09 26.89170 -107.37843 36237 ft 422 kts 306°
2026-05-05 01:10 26.93112 -107.42706 36218 ft 421 kts 306°
2026-05-05 01:10 26.97044 -107.47563 36230 ft 420 kts 306°
2026-05-05 01:11 27.00977 -107.52426 36238 ft 421 kts 306°
2026-05-05 01:11 27.04887 -107.57265 36252 ft 421 kts 306°
2026-05-05 01:12 27.08824 -107.62144 36261 ft 422 kts 306°
2026-05-05 01:12 27.12756 -107.67024 36269 ft 421 kts 306°
2026-05-05 01:13 27.16684 -107.71909 36271 ft 421 kts 306°
2026-05-05 01:13 27.20606 -107.76790 36278 ft 421 kts 306°
2026-05-05 01:14 27.24526 -107.81675 36284 ft 421 kts 306°
2026-05-05 01:14 27.28441 -107.86559 36288 ft 421 kts 306°
2026-05-05 01:15 27.32354 -107.91446 36292 ft 420 kts 306°
2026-05-05 01:15 27.36257 -107.96327 36294 ft 420 kts 306°
2026-05-05 01:16 27.40147 -108.01198 36294 ft 421 kts 305°
2026-05-05 01:16 27.44069 -108.06111 36299 ft 421 kts 305°
2026-05-05 01:17 27.47985 -108.11025 36296 ft 421 kts 305°
2026-05-05 01:17 27.51900 -108.15943 36291 ft 422 kts 305°
2026-05-05 01:18 27.55157 -108.20038 36283 ft 422 kts 305°
2026-05-05 01:18 27.59075 -108.24970 36277 ft 422 kts 305°
2026-05-05 01:19 27.62966 -108.29874 36266 ft 422 kts 305°
2026-05-05 01:19 27.66876 -108.34807 36255 ft 421 kts 305°
2026-05-05 01:20 27.70780 -108.39739 36242 ft 421 kts 305°
2026-05-05 01:20 27.74682 -108.44674 36226 ft 421 kts 305°
2026-05-05 01:21 27.78576 -108.49604 36210 ft 421 kts 305°
2026-05-05 01:21 27.82475 -108.54546 36196 ft 421 kts 305°
2026-05-05 01:22 27.86372 -108.59486 36179 ft 421 kts 305°
2026-05-05 01:22 27.89620 -108.63604 36170 ft 422 kts 305°
2026-05-05 01:23 27.92861 -108.67716 36157 ft 422 kts 305°
2026-05-05 01:24 27.96761 -108.72670 36138 ft 422 kts 304°
2026-05-05 01:24 28.00664 -108.77633 36135 ft 423 kts 304°
2026-05-05 01:25 28.04560 -108.82595 36126 ft 420 kts 304°
2026-05-05 01:25 28.08431 -108.87529 36119 ft 422 kts 304°
2026-05-05 01:26 28.12351 -108.92532 36105 ft 421 kts 304°
2026-05-05 01:26 28.16223 -108.97480 36095 ft 423 kts 304°
2026-05-05 01:27 28.20118 -109.02463 36085 ft 422 kts 303°
2026-05-05 01:27 28.24010 -109.07448 36078 ft 422 kts 303°
2026-05-05 01:28 28.28033 -109.12342 36058 ft 431 kts 311°
2026-05-05 01:28 28.30556 -109.14257 36078 ft 443 kts 322°
2026-05-05 01:28 28.33343 -109.15812 36072 ft 447 kts 325°
2026-05-05 01:29 28.38920 -109.18987 36061 ft 448 kts 323°
2026-05-05 01:29 28.44470 -109.22199 36060 ft 448 kts 323°
2026-05-05 01:30 28.50034 -109.25421 36057 ft 449 kts 323°
2026-05-05 01:30 28.55566 -109.28629 36054 ft 448 kts 323°
2026-05-05 01:31 28.61118 -109.31853 36051 ft 448 kts 323°
2026-05-05 01:31 28.66674 -109.35082 36049 ft 448 kts 323°
2026-05-05 01:32 28.72223 -109.38312 36047 ft 449 kts 323°
2026-05-05 01:32 28.77801 -109.41562 36044 ft 449 kts 323°
2026-05-05 01:33 28.83357 -109.44803 36042 ft 449 kts 323°
2026-05-05 01:33 28.88924 -109.48055 36037 ft 449 kts 323°
2026-05-05 01:34 28.94484 -109.51306 36035 ft 448 kts 323°
2026-05-05 01:34 29.00042 -109.54560 36032 ft 450 kts 323°
2026-05-05 01:35 29.05619 -109.57830 36027 ft 449 kts 323°
2026-05-05 01:35 29.11135 -109.61067 36034 ft 448 kts 322°
2026-05-05 01:36 29.16688 -109.64330 36048 ft 449 kts 322°
2026-05-05 01:36 29.22243 -109.67598 36048 ft 450 kts 322°
2026-05-05 01:37 29.27812 -109.70880 36045 ft 449 kts 322°
2026-05-05 01:37 29.33369 -109.74157 36042 ft 449 kts 322°
2026-05-05 01:38 29.38921 -109.77437 36036 ft 449 kts 322°
2026-05-05 01:38 29.44487 -109.80727 36036 ft 450 kts 322°
2026-05-05 01:39 29.50041 -109.84015 36034 ft 449 kts 321°
2026-05-05 01:39 29.55606 -109.87313 35995 ft 448 kts 321°
2026-05-05 01:40 29.61160 -109.90609 35993 ft 449 kts 321°
2026-05-05 01:40 29.66680 -109.93889 35998 ft 450 kts 321°
2026-05-05 01:41 29.72257 -109.97208 35995 ft 450 kts 321°
2026-05-05 01:41 29.77816 -110.00522 35995 ft 450 kts 321°
2026-05-05 01:42 29.83367 -110.03835 35999 ft 449 kts 321°
2026-05-05 01:42 29.88918 -110.07153 35997 ft 449 kts 321°
2026-05-05 01:43 29.94474 -110.10478 35996 ft 449 kts 321°
2026-05-05 01:43 30.00023 -110.13802 35999 ft 449 kts 321°
2026-05-05 01:44 30.05570 -110.17130 36001 ft 449 kts 321°
2026-05-05 01:44 30.11127 -110.20468 36003 ft 449 kts 321°
2026-05-05 01:45 30.14798 -110.22675 36004 ft 449 kts 321°
2026-05-05 01:45 30.15098 -110.22856 36005 ft 449 kts 321°
2026-05-05 01:46 30.20318 -110.25998 36007 ft 449 kts 321°
2026-05-05 01:46 30.25865 -110.29342 36011 ft 450 kts 321°
2026-05-05 01:47 30.31430 -110.32700 36012 ft 451 kts 321°
2026-05-05 01:47 30.36986 -110.36057 36017 ft 450 kts 321°
2026-05-05 01:48 30.42544 -110.39421 36031 ft 451 kts 321°
2026-05-05 01:48 30.48106 -110.42790 36035 ft 451 kts 320°
2026-05-05 01:49 30.53677 -110.46170 36037 ft 452 kts 320°
2026-05-05 01:49 30.59248 -110.49554 36038 ft 451 kts 320°
2026-05-05 01:50 30.64813 -110.52939 36041 ft 451 kts 320°
2026-05-05 01:50 30.70370 -110.56323 36042 ft 454 kts 320°
2026-05-05 01:51 30.75951 -110.59727 36044 ft 453 kts 320°
2026-05-05 01:51 30.81526 -110.63131 36046 ft 453 kts 320°
2026-05-05 01:52 30.87118 -110.66550 36047 ft 452 kts 320°
2026-05-05 01:52 30.92690 -110.69961 36050 ft 454 kts 320°
2026-05-05 01:53 30.98283 -110.73391 36048 ft 454 kts 320°
2026-05-05 01:53 31.03847 -110.76806 36045 ft 454 kts 320°
2026-05-05 01:54 31.09445 -110.80248 36047 ft 454 kts 320°
2026-05-05 01:54 31.15035 -110.83688 36046 ft 454 kts 320°
2026-05-05 01:55 31.20618 -110.87129 36035 ft 454 kts 320°
2026-05-05 01:55 31.26209 -110.90580 36040 ft 455 kts 319°
2026-05-05 01:56 31.31857 -110.93980 36025 ft 464 kts 325°
2026-05-05 01:56 31.35044 -110.94997 36041 ft 491 kts 340°
2026-05-05 01:56 31.38542 -110.95036 36052 ft 510 kts 354°
2026-05-05 01:57 31.45629 -110.94389 36049 ft 510 kts 351°
2026-05-05 01:57 31.52677 -110.94106 35545 ft 510 kts 351°
2026-05-05 01:58 31.56227 -110.93942 34988 ft 510 kts 351°
2026-05-05 01:58 31.59791 -110.93779 34450 ft 510 kts 351°
2026-05-05 01:58 31.63343 -110.93616 33907 ft 510 kts 351°
2026-05-05 01:58 31.66895 -110.93452 33369 ft 510 kts 352°
2026-05-05 01:59 31.70449 -110.93289 32829 ft 510 kts 352°
2026-05-05 01:59 31.73992 -110.93126 32290 ft 510 kts 352°
2026-05-05 01:59 31.77498 -110.92965 31750 ft 510 kts 352°
2026-05-05 01:59 31.81041 -110.92802 31201 ft 509 kts 352°
2026-05-05 02:00 31.84590 -110.92638 30662 ft 509 kts 352°
2026-05-05 02:00 31.88129 -110.92476 30138 ft 507 kts 352°
2026-05-05 02:00 31.91649 -110.92312 29675 ft 504 kts 352°
2026-05-05 02:00 31.95147 -110.92150 29141 ft 503 kts 352°
2026-05-05 02:01 31.98644 -110.91988 28591 ft 502 kts 353°
2026-05-05 02:01 32.02131 -110.91827 28076 ft 500 kts 353°
2026-05-05 02:01 32.05577 -110.91667 27999 ft 487 kts 353°
2026-05-05 02:01 32.08113 -110.91577 28021 ft 473 kts 350°
2026-05-05 02:02 32.09676 -110.91653 28018 ft 459 kts 345°
2026-05-05 02:03 32.12607 -110.92225 28031 ft 433 kts 336°
2026-05-05 02:03 32.15527 -110.93083 28015 ft 430 kts 335°
2026-05-05 02:03 32.21300 -110.94669 28045 ft 426 kts 335°
2026-05-05 02:04 32.27055 -110.96228 27991 ft 426 kts 335°
2026-05-05 02:04 32.29944 -110.97010 27461 ft 428 kts 336°
2026-05-05 02:04 32.32861 -110.97801 26825 ft 431 kts 336°
2026-05-05 02:05 32.35802 -110.98598 26218 ft 433 kts 337°
2026-05-05 02:05 32.38747 -110.99398 25602 ft 435 kts 338°
2026-05-05 02:05 32.41711 -111.00203 24992 ft 437 kts 338°
2026-05-05 02:05 32.44686 -111.01013 24377 ft 439 kts 339°
2026-05-05 02:06 32.47671 -111.01825 23764 ft 440 kts 339°
2026-05-05 02:06 32.50663 -111.02644 23155 ft 441 kts 339°
2026-05-05 02:06 32.53519 -111.03820 22475 ft 430 kts 327°
2026-05-05 02:06 32.56062 -111.05614 21937 ft 421 kts 319°
2026-05-05 02:07 32.58499 -111.07527 21374 ft 421 kts 319°
2026-05-05 02:07 32.60968 -111.09398 20753 ft 422 kts 320°
2026-05-05 02:07 32.63448 -111.11257 20166 ft 422 kts 320°
2026-05-05 02:07 32.65929 -111.13119 19598 ft 421 kts 320°
2026-05-05 02:08 32.68371 -111.14954 19008 ft 420 kts 320°
2026-05-05 02:08 32.70841 -111.16810 18405 ft 420 kts 320°
2026-05-05 02:08 32.73287 -111.18690 17791 ft 416 kts 317°
2026-05-05 02:08 32.75368 -111.20990 17159 ft 404 kts 304°
2026-05-05 02:09 32.76987 -111.23672 16617 ft 396 kts 297°
2026-05-05 02:09 32.78490 -111.26416 16023 ft 395 kts 298°
2026-05-05 02:09 32.80013 -111.29132 15432 ft 394 kts 298°
2026-05-05 02:09 32.81543 -111.31842 14830 ft 393 kts 299°
2026-05-05 02:10 32.83061 -111.34533 14229 ft 392 kts 299°
2026-05-05 02:10 32.84577 -111.37223 13627 ft 391 kts 299°
2026-05-05 02:10 32.86070 -111.39871 13079 ft 388 kts 300°
2026-05-05 02:10 32.87546 -111.42495 12967 ft 373 kts 299°
2026-05-05 02:11 32.88961 -111.45009 12957 ft 356 kts 299°
2026-05-05 02:11 32.90344 -111.47366 12944 ft 341 kts 304°
2026-05-05 02:11 32.92111 -111.49182 12953 ft 331 kts 321°
2026-05-05 02:11 32.94140 -111.50405 12716 ft 326 kts 332°
2026-05-05 02:12 32.95397 -111.51000 12332 ft 329 kts 334°
2026-05-05 02:12 32.99585 -111.52977 11085 ft 336 kts 334°
2026-05-05 02:12 33.01754 -111.54030 10459 ft 338 kts 334°
2026-05-05 02:13 33.03941 -111.55095 9979 ft 336 kts 334°
2026-05-05 02:13 33.06044 -111.56121 9953 ft 318 kts 334°
2026-05-05 02:13 33.08040 -111.57100 9937 ft 302 kts 333°
2026-05-05 02:13 33.09959 -111.58047 9928 ft 298 kts 333°
2026-05-05 02:14 33.11858 -111.58984 9641 ft 290 kts 333°
2026-05-05 02:14 33.13662 -111.59876 9505 ft 276 kts 333°
2026-05-05 02:14 33.15390 -111.60729 9407 ft 262 kts 333°
2026-05-05 02:14 33.17051 -111.61551 9144 ft 257 kts 333°
2026-05-05 02:15 33.18717 -111.62374 8646 ft 262 kts 333°
2026-05-05 02:15 33.19763 -111.62892 8337 ft 264 kts 333°
2026-05-05 02:15 33.21473 -111.63739 7845 ft 267 kts 333°
2026-05-05 02:15 33.23196 -111.64613 7353 ft 269 kts 332°
2026-05-05 02:16 33.24887 -111.65591 6873 ft 271 kts 330°
2026-05-05 02:16 33.26582 -111.66591 6382 ft 272 kts 330°
2026-05-05 02:16 33.28288 -111.67591 5895 ft 273 kts 330°
2026-05-05 02:16 33.29997 -111.68590 5388 ft 274 kts 330°
2026-05-05 02:17 33.31713 -111.69592 4894 ft 274 kts 330°
2026-05-05 02:17 33.33393 -111.70574 4369 ft 264 kts 330°
2026-05-05 02:17 33.35004 -111.71516 3996 ft 246 kts 330°
2026-05-05 02:17 33.36485 -111.72382 3944 ft 232 kts 330°
2026-05-05 02:18 33.37924 -111.73223 3967 ft 230 kts 330°
2026-05-05 02:18 33.39364 -111.74066 3988 ft 230 kts 330°
2026-05-05 02:18 33.40664 -111.75134 3974 ft 225 kts 311°
2026-05-05 02:18 33.41600 -111.76621 4004 ft 223 kts 300°
2026-05-05 02:19 33.42410 -111.78188 4002 ft 222 kts 297°
2026-05-05 02:19 33.43229 -111.79750 3997 ft 221 kts 298°
2026-05-05 02:19 33.43971 -111.81348 3950 ft 218 kts 289°
2026-05-05 02:19 33.44219 -111.83036 3717 ft 195 kts 270°
2026-05-05 02:20 33.44162 -111.84569 3476 ft 175 kts 263°
2026-05-05 02:20 33.44088 -111.85977 3188 ft 163 kts 264°